| time (UTC) | temp F | wind direction | speed MPH | gust MPH | rain 1hr in | rain 24hr in | rain mn in | humidity % | barometer mb |
| 20260904202716 | 92 | 333 | 1.0 | 4.0 | 0.00 | 0.03 | 0.01 | 67 | 1012.1 |
| 20260904202224 | 92 | 246 | 5.0 | 9.0 | 0.00 | 0.03 | 0.01 | 66 | 1012.1 |
| 20260904201745 | 92 | 245 | 4.0 | 9.0 | 0.00 | 0.03 | 0.01 | 66 | 1012.3 |
| 20260904201240 | 92 | 219 | 5.0 | 9.0 | 0.00 | 0.03 | 0.01 | 66 | 1012.3 |
| 20260904200718 | 93 | 235 | 5.0 | 11.0 | 0.00 | 0.03 | 0.01 | 67 | 1012.3 |
| 20260904200216 | 92 | 254 | 2.0 | 6.0 | 0.00 | 0.03 | 0.01 | 65 | 1012.2 |
| 20260904195724 | 92 | 240 | 6.0 | 10.0 | 0.00 | 0.03 | 0.01 | 67 | 1012.4 |
| 20260904195241 | 92 | 242 | 3.0 | 10.0 | 0.00 | 0.03 | 0.01 | 67 | 1012.4 |
| 20260904194719 | 92 | 0.0 | 0.0 | 0.00 | 0.03 | 0.01 | 68 | 1012.4 | |
| 20260904194237 | 92 | 243 | 7.0 | 15.0 | 0.00 | 0.03 | 0.01 | 66 | 1012.3 |
| 20260904193725 | 92 | 243 | 1.0 | 6.0 | 0.00 | 0.03 | 0.01 | 67 | 1012.4 |
| 20260904193223 | 92 | 225 | 4.0 | 8.0 | 0.00 | 0.03 | 0.01 | 67 | 1012.4 |
| 20260904192720 | 92 | 267 | 1.0 | 6.0 | 0.00 | 0.03 | 0.01 | 68 | 1012.4 |
| 20260904192218 | 91 | 249 | 2.0 | 7.0 | 0.00 | 0.03 | 0.01 | 68 | 1012.7 |
| 20260904191716 | 91 | 271 | 5.0 | 9.0 | 0.00 | 0.03 | 0.01 | 67 | 1012.8 |
| 20260904191224 | 92 | 257 | 4.0 | 9.0 | 0.00 | 0.03 | 0.01 | 66 | 1012.7 |
| 20260904190721 | 92 | 231 | 1.0 | 2.0 | 0.00 | 0.03 | 0.01 | 66 | 1013.0 |
| 20260904190219 | 93 | 234 | 2.0 | 7.0 | 0.00 | 0.03 | 0.01 | 67 | 1013.0 |
| 20260904185737 | 93 | 0.0 | 0.0 | 0.00 | 0.03 | 0.01 | 65 | 1013.0 | |
| 20260904185225 | 93 | 254 | 2.0 | 8.0 | 0.00 | 0.03 | 0.01 | 67 | 1013.2 |
| 20260904184723 | 92 | 246 | 1.0 | 4.0 | 0.00 | 0.03 | 0.01 | 66 | 1013.1 |
| 20260904184220 | 93 | 286 | 4.0 | 9.0 | 0.00 | 0.03 | 0.01 | 66 | 1013.1 |
| 20260904183718 | 93 | 221 | 6.0 | 13.0 | 0.00 | 0.03 | 0.01 | 66 | 1013.1 |
| 20260904183216 | 93 | 256 | 6.0 | 10.0 | 0.00 | 0.03 | 0.01 | 63 | 1013.2 |
| 20260904182723 | 93 | 245 | 5.0 | 9.0 | 0.00 | 0.03 | 0.01 | 63 | 1013.3 |
| 20260904182221 | 93 | 227 | 6.0 | 10.0 | 0.00 | 0.03 | 0.01 | 63 | 1013.4 |
| 20260904181739 | 93 | 0.0 | 0.0 | 0.00 | 0.03 | 0.01 | 68 | 1013.1 | |
| 20260904181217 | 92 | 235 | 0.0 | 6.0 | 0.00 | 0.03 | 0.01 | 68 | 1013.5 |
| 20260904180724 | 91 | 0.0 | 0.0 | 0.00 | 0.03 | 0.01 | 68 | 1013.3 | |
| 20260904180222 | 90 | 228 | 2.0 | 8.0 | 0.00 | 0.03 | 0.01 | 71 | 1013.5 |
| 20260904175720 | 90 | 0.0 | 0.0 | 0.00 | 0.03 | 0.01 | 70 | 1013.5 | |
| 20260904175258 | 90 | 208 | 2.0 | 8.0 | 0.00 | 0.03 | 0.01 | 69 | 1013.6 |
| 20260904174716 | 91 | 225 | 2.0 | 7.0 | 0.00 | 0.03 | 0.01 | 69 | 1013.6 |
| 20260904174223 | 91 | 245 | 6.0 | 11.0 | 0.00 | 0.03 | 0.01 | 72 | 1013.7 |
| 20260904173721 | 91 | 226 | 2.0 | 6.0 | 0.00 | 0.03 | 0.01 | 73 | 1013.5 |
| 20260904173239 | 91 | 223 | 1.0 | 3.0 | 0.00 | 0.03 | 0.01 | 72 | 1013.4 |
| 20260904172717 | 91 | 0.0 | 0.0 | 0.00 | 0.03 | 0.01 | 73 | 1013.6 | |
| 20260904172224 | 90 | 244 | 0.0 | 3.0 | 0.00 | 0.03 | 0.01 | 75 | 1013.7 |
| 20260904171742 | 90 | 225 | 1.0 | 7.0 | 0.00 | 0.03 | 0.01 | 73 | 1013.7 |
| 20260904171220 | 90 | 230 | 3.0 | 8.0 | 0.00 | 0.03 | 0.01 | 74 | 1013.9 |
| 20260904170718 | 90 | 0.0 | 0.0 | 0.00 | 0.03 | 0.01 | 74 | 1014.0 | |
| 20260904170216 | 90 | 0.0 | 0.0 | 0.00 | 0.03 | 0.01 | 73 | 1014.2 | |
| 20260904165743 | 90 | 0.0 | 0.0 | 0.00 | 0.03 | 0.01 | 73 | 1014.2 | |
| 20260904165305 | 91 | 236 | 0.0 | 1.0 | 0.00 | 0.03 | 0.01 | 71 | 1014.1 |
| 20260904164719 | 91 | 250 | 1.0 | 3.0 | 0.00 | 0.03 | 0.01 | 71 | 1014.2 |
| 20260904164216 | 91 | 234 | 0.0 | 4.0 | 0.00 | 0.03 | 0.01 | 74 | 1014.2 |
| 20260904163724 | 91 | 227 | 0.0 | 1.0 | 0.00 | 0.03 | 0.01 | 75 | 1014.2 |
| 20260904163221 | 90 | 0.0 | 0.0 | 0.00 | 0.03 | 0.01 | 77 | 1014.2 | |
| 20260904162719 | 90 | 165 | 1.0 | 4.0 | 0.00 | 0.03 | 0.01 | 76 | 1014.2 |
| 20260904162217 | 90 | 0.0 | 0.0 | 0.00 | 0.03 | 0.01 | 77 | 1014.3 | |
| 20260904161725 | 90 | 195 | 1.0 | 4.0 | 0.00 | 0.03 | 0.01 | 75 | 1014.2 |
| 20260904161222 | 91 | 0.0 | 0.0 | 0.00 | 0.03 | 0.01 | 76 | 1014.4 | |
| 20260904160720 | 91 | 223 | 1.0 | 2.0 | 0.00 | 0.03 | 0.01 | 78 | 1014.4 |
| 20260904160218 | 90 | 217 | 1.0 | 3.0 | 0.00 | 0.03 | 0.01 | 78 | 1014.4 |
| 20260904155716 | 90 | 242 | 1.0 | 7.0 | 0.00 | 0.03 | 0.01 | 79 | 1014.5 |
| 20260904155224 | 90 | 226 | 1.0 | 4.0 | 0.01 | 0.03 | 0.01 | 78 | 1014.6 |
| 20260904154721 | 90 | 184 | 0.0 | 1.0 | 0.01 | 0.03 | 0.01 | 78 | 1014.6 |
| 20260904154219 | 89 | 0.0 | 0.0 | 0.01 | 0.03 | 0.01 | 79 | 1014.4 | |
| 20260904153717 | 89 | 203 | 1.0 | 7.0 | 0.01 | 0.03 | 0.01 | 80 | 1014.4 |
| 20260904153225 | 89 | 196 | 0.0 | 1.0 | 0.01 | 0.03 | 0.01 | 79 | 1014.6 |
| 20260904152743 | 89 | 0.0 | 0.0 | 0.01 | 0.03 | 0.01 | 79 | 1014.5 | |
| 20260904152220 | 89 | 226 | 2.0 | 4.0 | 0.01 | 0.03 | 0.01 | 80 | 1014.5 |
| 20260904151738 | 89 | 0.0 | 0.0 | 0.01 | 0.03 | 0.01 | 82 | 1014.5 | |
| 20260904151215 | 89 | 0.0 | 0.0 | 0.01 | 0.03 | 0.01 | 83 | 1014.5 | |
| 20260904150723 | 89 | 0.0 | 0.0 | 0.01 | 0.03 | 0.01 | 83 | 1014.4 | |
| 20260904150221 | 88 | 0.0 | 0.0 | 0.01 | 0.03 | 0.01 | 82 | 1014.3 | |
| 20260904145719 | 88 | 0.0 | 0.0 | 0.01 | 0.03 | 0.01 | 83 | 1014.2 | |
| 20260904145217 | 88 | 0.0 | 0.0 | 0.00 | 0.02 | 0.00 | 83 | 1014.0 | |
| 20260904144744 | 87 | 0.0 | 0.0 | 0.00 | 0.02 | 0.00 | 84 | 1014.3 | |
| 20260904144242 | 87 | 0.0 | 0.0 | 0.00 | 0.02 | 0.00 | 84 | 1014.3 | |
| 20260904143719 | 87 | 0.0 | 0.0 | 0.00 | 0.02 | 0.00 | 85 | 1014.3 | |
| 20260904143218 | 86 | 0.0 | 0.0 | 0.00 | 0.02 | 0.00 | 85 | 1014.1 | |
| 20260904142747 | 86 | 0.0 | 0.0 | 0.00 | 0.02 | 0.00 | 85 | 1014.1 | |
| 20260904142223 | 86 | 0.0 | 0.0 | 0.00 | 0.02 | 0.00 | 84 | 1014.1 | |
| 20260904141720 | 85 | 0.0 | 0.0 | 0.00 | 0.02 | 0.00 | 87 | 1014.0 | |
| 20260904141238 | 85 | 0.0 | 0.0 | 0.00 | 0.02 | 0.00 | 87 | 1014.0 | |
| 20260904140716 | 85 | 0.0 | 0.0 | 0.00 | 0.02 | 0.00 | 87 | 1014.0 | |
| 20260904140224 | 85 | 0.0 | 0.0 | 0.00 | 0.02 | 0.00 | 89 | 1014.0 | |
| 20260904135722 | 84 | 0.0 | 0.0 | 0.00 | 0.02 | 0.00 | 89 | 1014.0 | |
| 20260904135239 | 84 | 0.0 | 0.0 | 0.00 | 0.02 | 0.00 | 90 | 1014.1 | |
| 20260904134737 | 84 | 0.0 | 0.0 | 0.00 | 0.02 | 0.00 | 91 | 1013.9 | |
| 20260904134245 | 84 | 0.0 | 0.0 | 0.00 | 0.02 | 0.00 | 92 | 1013.9 | |
| 20260904133723 | 83 | 0.0 | 0.0 | 0.00 | 0.02 | 0.00 | 92 | 1013.9 | |
| 20260904133221 | 83 | 0.0 | 0.0 | 0.00 | 0.02 | 0.00 | 92 | 1013.8 | |
| 20260904132718 | 83 | 0.0 | 0.0 | 0.00 | 0.02 | 0.00 | 92 | 1013.8 | |
| 20260904132236 | 83 | 0.0 | 0.0 | 0.00 | 0.02 | 0.00 | 93 | 1013.9 | |
| 20260904131726 | 82 | 0.0 | 0.0 | 0.00 | 0.02 | 0.00 | 93 | 1013.9 | |
| 20260904131242 | 82 | 0.0 | 0.0 | 0.00 | 0.02 | 0.00 | 94 | 1013.7 | |
| 20260904130719 | 82 | 0.0 | 0.0 | 0.00 | 0.02 | 0.00 | 94 | 1013.6 | |
| 20260904130217 | 82 | 0.0 | 0.0 | 0.00 | 0.02 | 0.00 | 95 | 1013.7 | |
| 20260904125725 | 82 | 0.0 | 0.0 | 0.00 | 0.02 | 0.00 | 95 | 1013.6 | |
| 20260904125222 | 81 | 0.0 | 0.0 | 0.00 | 0.02 | 0.00 | 95 | 1013.4 | |
| 20260904124720 | 81 | 0.0 | 0.0 | 0.00 | 0.02 | 0.00 | 96 | 1013.7 | |
| 20260904124218 | 81 | 0.0 | 0.0 | 0.00 | 0.02 | 0.00 | 96 | 1013.7 | |
| 20260904123716 | 80 | 0.0 | 0.0 | 0.00 | 0.02 | 0.00 | 96 | 1013.6 | |
| 20260904123244 | 80 | 0.0 | 0.0 | 0.00 | 0.02 | 0.00 | 96 | 1013.6 | |
| 20260904122721 | 80 | 0.0 | 0.0 | 0.00 | 0.02 | 0.00 | 96 | 1013.6 | |
| 20260904122219 | 79 | 0.0 | 0.0 | 0.00 | 0.02 | 0.00 | 96 | 1013.4 | |
| 20260904121716 | 79 | 0.0 | 0.0 | 0.00 | 0.02 | 0.00 | 96 | 1013.4 | |
| 20260904121224 | 79 | 0.0 | 0.0 | 0.00 | 0.02 | 0.00 | 96 | 1013.4 | |
| 20260904120721 | 79 | 0.0 | 0.0 | 0.00 | 0.02 | 0.00 | 96 | 1013.3 | |
| 20260904120219 | 79 | 0.0 | 0.0 | 0.00 | 0.02 | 0.00 | 97 | 1013.3 | |
| 20260904115717 | 79 | 0.0 | 0.0 | 0.00 | 0.02 | 0.00 | 97 | 1013.4 | |
| 20260904115225 | 79 | 0.0 | 0.0 | 0.00 | 0.02 | 0.00 | 98 | 1013.2 | |
| 20260904114722 | 79 | 0.0 | 0.0 | 0.00 | 0.02 | 0.00 | 98 | 1013.1 | |
| 20260904114219 | 79 | 0.0 | 0.0 | 0.00 | 0.02 | 0.00 | 98 | 1013.3 | |
| 20260904113717 | 78 | 0.0 | 0.0 | 0.00 | 0.02 | 0.00 | 98 | 1013.2 | |
| 20260904113245 | 78 | 0.0 | 0.0 | 0.00 | 0.02 | 0.00 | 98 | 1013.3 | |
| 20260904112723 | 77 | 0.0 | 0.0 | 0.00 | 0.02 | 0.00 | 98 | 1013.1 | |
| 20260904112220 | 77 | 0.0 | 0.0 | 0.00 | 0.02 | 0.00 | 98 | 1013.2 | |
| 20260904111718 | 77 | 0.0 | 0.0 | 0.00 | 0.02 | 0.00 | 98 | 1012.9 | |
| 20260904111215 | 77 | 0.0 | 0.0 | 0.00 | 0.02 | 0.00 | 98 | 1012.9 | |
| 20260904110743 | 77 | 0.0 | 0.0 | 0.00 | 0.02 | 0.00 | 98 | 1012.8 | |
| 20260904110221 | 77 | 0.0 | 0.0 | 0.00 | 0.02 | 0.00 | 98 | 1012.9 | |
| 20260904105718 | 77 | 0.0 | 0.0 | 0.00 | 0.02 | 0.00 | 98 | 1012.9 | |
| 20260904105216 | 77 | 0.0 | 0.0 | 0.00 | 0.02 | 0.00 | 98 | 1013.0 | |
| 20260904104727 | 77 | 0.0 | 0.0 | 0.00 | 0.02 | 0.00 | 98 | 1012.8 | |
| 20260904104222 | 77 | 0.0 | 0.0 | 0.00 | 0.02 | 0.00 | 98 | 1013.0 | |
| 20260904103720 | 77 | 0.0 | 0.0 | 0.00 | 0.02 | 0.00 | 98 | 1012.8 | |
| 20260904103217 | 77 | 0.0 | 0.0 | 0.00 | 0.02 | 0.00 | 98 | 1012.7 | |
| 20260904102725 | 77 | 0.0 | 0.0 | 0.00 | 0.02 | 0.00 | 98 | 1012.7 | |
| 20260904102223 | 77 | 0.0 | 0.0 | 0.00 | 0.02 | 0.00 | 98 | 1012.7 | |
| 20260904101721 | 77 | 0.0 | 0.0 | 0.00 | 0.02 | 0.00 | 98 | 1012.5 | |
| 20260904101219 | 77 | 0.0 | 0.0 | 0.00 | 0.02 | 0.00 | 98 | 1012.3 | |
| 20260904100716 | 77 | 0.0 | 0.0 | 0.00 | 0.02 | 0.00 | 98 | 1012.6 | |
| 20260904100224 | 77 | 0.0 | 0.0 | 0.00 | 0.02 | 0.00 | 98 | 1012.5 | |
| 20260904095741 | 77 | 0.0 | 0.0 | 0.00 | 0.02 | 0.00 | 98 | 1012.3 | |
| 20260904095218 | 77 | 0.0 | 0.0 | 0.00 | 0.02 | 0.00 | 98 | 1012.2 | |
| 20260904094736 | 77 | 0.0 | 0.0 | 0.00 | 0.02 | 0.00 | 98 | 1012.0 | |
| 20260904094224 | 77 | 0.0 | 0.0 | 0.00 | 0.02 | 0.00 | 98 | 1012.1 | |
| 20260904093721 | 77 | 0.0 | 0.0 | 0.00 | 0.02 | 0.00 | 98 | 1012.2 | |
| 20260904093219 | 77 | 0.0 | 0.0 | 0.00 | 0.02 | 0.00 | 98 | 1012.1 | |
| 20260904092716 | 77 | 0.0 | 0.0 | 0.00 | 0.02 | 0.00 | 98 | 1012.0 | |
| 20260904092224 | 77 | 0.0 | 0.0 | 0.00 | 0.02 | 0.00 | 98 | 1011.9 | |
| 20260904091722 | 77 | 0.0 | 0.0 | 0.00 | 0.02 | 0.00 | 98 | 1011.9 | |
| 20260904091220 | 77 | 0.0 | 0.0 | 0.00 | 0.02 | 0.00 | 98 | 1011.8 | |
| 20260904090718 | 77 | 0.0 | 0.0 | 0.00 | 0.02 | 0.00 | 98 | 1011.8 | |
| 20260904090225 | 77 | 0.0 | 0.0 | 0.00 | 0.02 | 0.00 | 98 | 1012.0 | |
| 20260904085723 | 77 | 0.0 | 0.0 | 0.00 | 0.02 | 0.00 | 98 | 1011.9 | |
| 20260904085240 | 77 | 0.0 | 0.0 | 0.00 | 0.02 | 0.00 | 97 | 1011.9 | |
| 20260904084717 | 77 | 0.0 | 0.0 | 0.00 | 0.02 | 0.00 | 97 | 1011.9 | |
| 20260904084215 | 77 | 0.0 | 0.0 | 0.00 | 0.02 | 0.00 | 97 | 1011.9 | |
| 20260904083723 | 77 | 0.0 | 0.0 | 0.00 | 0.02 | 0.00 | 97 | 1011.8 | |
| 20260904083221 | 77 | 0.0 | 0.0 | 0.00 | 0.02 | 0.00 | 97 | 1012.0 | |
| 20260904082718 | 77 | 0.0 | 0.0 | 0.00 | 0.02 | 0.00 | 97 | 1012.1 | |
| 20260904082219 | 77 | 0.0 | 0.0 | 0.00 | 0.02 | 0.00 | 97 | 1012.1 | |
| 20260904081724 | 77 | 0.0 | 0.0 | 0.00 | 0.02 | 0.00 | 97 | 1012.0 | |
| 20260904081222 | 77 | 0.0 | 0.0 | 0.00 | 0.02 | 0.00 | 97 | 1011.9 | |
| 20260904080719 | 77 | 0.0 | 0.0 | 0.00 | 0.02 | 0.00 | 98 | 1011.9 | |
| 20260904080217 | 77 | 0.0 | 0.0 | 0.00 | 0.02 | 0.00 | 97 | 1011.9 | |
| 20260904075725 | 77 | 0.0 | 0.0 | 0.00 | 0.02 | 0.00 | 97 | 1012.1 | |
| 20260904075223 | 77 | 0.0 | 0.0 | 0.00 | 0.02 | 0.00 | 97 | 1012.1 | |
| 20260904074720 | 77 | 0.0 | 0.0 | 0.00 | 0.02 | 0.00 | 97 | 1012.1 | |
| 20260904074218 | 77 | 0.0 | 0.0 | 0.00 | 0.02 | 0.00 | 97 | 1011.9 | |
| 20260904073716 | 77 | 0.0 | 0.0 | 0.00 | 0.02 | 0.00 | 97 | 1011.8 | |
| 20260904073224 | 77 | 0.0 | 0.0 | 0.00 | 0.02 | 0.00 | 97 | 1011.8 | |
| 20260904072721 | 77 | 0.0 | 0.0 | 0.00 | 0.02 | 0.00 | 97 | 1011.9 | |
| 20260904072219 | 77 | 0.0 | 0.0 | 0.00 | 0.02 | 0.00 | 97 | 1011.8 | |
| 20260904071717 | 77 | 0.0 | 0.0 | 0.00 | 0.02 | 0.00 | 97 | 1011.7 | |
| 20260904071245 | 77 | 0.0 | 0.0 | 0.00 | 0.02 | 0.00 | 97 | 1011.8 | |
| 20260904070722 | 77 | 0.0 | 0.0 | 0.00 | 0.02 | 0.00 | 97 | 1012.0 | |
| 20260904070300 | 77 | 0.0 | 0.0 | 0.00 | 0.02 | 0.00 | 97 | 1012.0 | |
| 20260904065738 | 77 | 0.0 | 0.0 | 0.00 | 0.02 | 0.00 | 97 | 1012.0 | |
| 20260904065225 | 77 | 0.0 | 0.0 | 0.00 | 0.02 | 0.00 | 97 | 1011.9 | |
| 20260904064723 | 77 | 0.0 | 0.0 | 0.00 | 0.02 | 0.00 | 97 | 1012.1 | |
| 20260904064224 | 77 | 0.0 | 0.0 | 0.00 | 0.02 | 0.00 | 97 | 1012.0 | |
| 20260904063718 | 77 | 0.0 | 0.0 | 0.00 | 0.02 | 0.00 | 97 | 1012.0 | |
| 20260904063215 | 77 | 0.0 | 0.0 | 0.00 | 0.02 | 0.00 | 97 | 1011.9 | |
| 20260904062723 | 77 | 0.0 | 0.0 | 0.00 | 0.02 | 0.00 | 97 | 1012.0 | |
| 20260904062221 | 77 | 0.0 | 0.0 | 0.00 | 0.02 | 0.00 | 97 | 1012.0 | |
| 20260904061718 | 77 | 0.0 | 0.0 | 0.00 | 0.02 | 0.00 | 97 | 1012.2 | |
| 20260904061216 | 77 | 0.0 | 0.0 | 0.00 | 0.02 | 0.00 | 97 | 1012.1 | |
| 20260904060724 | 77 | 0.0 | 0.0 | 0.00 | 0.02 | 0.00 | 97 | 1012.2 | |
| 20260904060221 | 77 | 0.0 | 0.0 | 0.00 | 0.02 | 0.00 | 97 | 1012.2 | |
| 20260904055719 | 78 | 0.0 | 0.0 | 0.00 | 0.02 | 0.00 | 97 | 1012.4 | |
| 20260904055219 | 78 | 0.0 | 0.0 | 0.00 | 0.02 | 0.00 | 96 | 1012.4 | |
| 20260904054724 | 78 | 0.0 | 0.0 | 0.00 | 0.02 | 0.00 | 96 | 1012.4 | |
| 20260904054242 | 78 | 0.0 | 0.0 | 0.00 | 0.02 | 0.00 | 96 | 1012.4 | |
| 20260904053741 | 78 | 0.0 | 0.0 | 0.00 | 0.02 | 0.00 | 97 | 1012.4 | |
| 20260904053218 | 78 | 0.0 | 0.0 | 0.00 | 0.02 | 0.00 | 97 | 1012.5 | |
| 20260904052745 | 78 | 0.0 | 0.0 | 0.00 | 0.02 | 0.00 | 97 | 1012.5 | |
| 20260904052222 | 78 | 0.0 | 0.0 | 0.00 | 0.02 | 0.00 | 97 | 1012.5 | |
| 20260904051720 | 78 | 0.0 | 0.0 | 0.00 | 0.02 | 0.00 | 97 | 1012.6 | |
| 20260904051217 | 78 | 0.0 | 0.0 | 0.00 | 0.02 | 0.00 | 97 | 1012.7 | |
| 20260904050745 | 78 | 0.0 | 0.0 | 0.00 | 0.02 | 0.00 | 96 | 1012.6 | |
| 20260904050243 | 78 | 0.0 | 0.0 | 0.00 | 0.02 | 0.00 | 96 | 1012.5 | |
| 20260904045720 | 78 | 0.0 | 0.0 | 0.00 | 0.02 | 0.00 | 96 | 1012.9 | |
| 20260904045218 | 78 | 0.0 | 0.0 | 0.00 | 0.02 | 0.00 | 96 | 1012.7 | |
| 20260904044715 | 78 | 0.0 | 0.0 | 0.00 | 0.02 | 0.00 | 96 | 1012.7 | |
| 20260904044223 | 78 | 0.0 | 0.0 | 0.00 | 0.02 | 0.00 | 96 | 1012.9 | |
| 20260904043720 | 77 | 0.0 | 0.0 | 0.00 | 0.02 | 0.00 | 96 | 1012.9 | |
| 20260904043218 | 78 | 0.0 | 0.0 | 0.00 | 0.02 | 0.00 | 96 | 1012.8 | |
| 20260904042716 | 77 | 0.0 | 0.0 | 0.00 | 0.02 | 0.00 | 96 | 1013.1 | |
| 20260904042224 | 78 | 0.0 | 0.0 | 0.00 | 0.02 | 0.00 | 96 | 1013.1 | |
| 20260904041721 | 77 | 0.0 | 0.0 | 0.00 | 0.02 | 0.00 | 95 | 1013.0 | |
| 20260904041219 | 77 | 0.0 | 0.0 | 0.00 | 0.02 | 0.00 | 95 | 1013.0 | |
| 20260904040716 | 77 | 0.0 | 0.0 | 0.00 | 0.02 | 0.00 | 95 | 1013.0 | |
| 20260904040224 | 77 | 0.0 | 0.0 | 0.00 | 0.02 | 0.00 | 95 | 1012.8 | |
| 20260904035742 | 78 | 0.0 | 0.0 | 0.00 | 0.02 | 0.02 | 95 | 1012.9 | |
| 20260904035219 | 78 | 0.0 | 0.0 | 0.00 | 0.02 | 0.02 | 95 | 1012.8 | |
| 20260904034717 | 78 | 0.0 | 0.0 | 0.00 | 0.02 | 0.02 | 95 | 1013.1 | |
| 20260904034224 | 78 | 0.0 | 0.0 | 0.00 | 0.02 | 0.02 | 95 | 1013.0 | |
| 20260904033722 | 78 | 0.0 | 0.0 | 0.00 | 0.02 | 0.02 | 95 | 1013.0 | |
| 20260904033219 | 78 | 0.0 | 0.0 | 0.00 | 0.02 | 0.02 | 95 | 1013.0 | |
| 20260904032717 | 78 | 0.0 | 0.0 | 0.00 | 0.02 | 0.02 | 95 | 1013.0 | |
| 20260904032245 | 78 | 0.0 | 0.0 | 0.00 | 0.02 | 0.02 | 95 | 1013.0 | |
| 20260904031722 | 78 | 0.0 | 0.0 | 0.00 | 0.02 | 0.02 | 94 | 1012.8 | |
| 20260904031220 | 78 | 0.0 | 0.0 | 0.00 | 0.02 | 0.02 | 94 | 1012.9 | |
| 20260904030717 | 78 | 0.0 | 0.0 | 0.00 | 0.02 | 0.02 | 95 | 1012.7 | |
| 20260904030235 | 78 | 0.0 | 0.0 | 0.00 | 0.02 | 0.02 | 95 | 1012.8 | |
| 20260904025723 | 78 | 0.0 | 0.0 | 0.00 | 0.02 | 0.02 | 95 | 1012.7 | |
| 20260904025220 | 78 | 0.0 | 0.0 | 0.00 | 0.02 | 0.02 | 95 | 1012.7 | |
| 20260904024718 | 78 | 0.0 | 0.0 | 0.00 | 0.02 | 0.02 | 95 | 1012.6 | |
| 20260904024215 | 78 | 0.0 | 0.0 | 0.00 | 0.02 | 0.02 | 95 | 1012.4 | |
| 20260904023743 | 78 | 0.0 | 0.0 | 0.00 | 0.02 | 0.02 | 95 | 1012.4 | |
| 20260904023220 | 78 | 0.0 | 0.0 | 0.00 | 0.02 | 0.02 | 95 | 1012.3 | |
| 20260904022718 | 78 | 0.0 | 0.0 | 0.00 | 0.02 | 0.02 | 95 | 1012.6 | |
| 20260904022215 | 78 | 0.0 | 0.0 | 0.00 | 0.02 | 0.02 | 95 | 1012.7 | |
| 20260904021743 | 78 | 0.0 | 0.0 | 0.00 | 0.02 | 0.02 | 95 | 1012.4 | |
| 20260904021220 | 79 | 0.0 | 0.0 | 0.00 | 0.02 | 0.02 | 95 | 1012.7 | |
| 20260904020718 | 79 | 0.0 | 0.0 | 0.00 | 0.02 | 0.02 | 95 | 1012.7 | |
| 20260904020216 | 79 | 0.0 | 0.0 | 0.00 | 0.02 | 0.02 | 95 | 1012.7 | |
| 20260904015723 | 79 | 0.0 | 0.0 | 0.00 | 0.02 | 0.02 | 95 | 1012.7 | |
| 20260904015220 | 79 | 0.0 | 0.0 | 0.00 | 0.02 | 0.02 | 95 | 1012.6 | |
| 20260904014718 | 79 | 0.0 | 0.0 | 0.00 | 0.02 | 0.02 | 95 | 1012.5 | |
| 20260904014236 | 79 | 0.0 | 0.0 | 0.00 | 0.02 | 0.02 | 95 | 1012.7 | |
| 20260904013723 | 79 | 0.0 | 0.0 | 0.00 | 0.02 | 0.02 | 95 | 1012.6 | |
| 20260904013221 | 79 | 0.0 | 0.0 | 0.00 | 0.02 | 0.02 | 95 | 1012.4 | |
| 20260904012719 | 79 | 0.0 | 0.0 | 0.00 | 0.02 | 0.02 | 95 | 1012.5 | |
| 20260904012216 | 79 | 0.0 | 0.0 | 0.00 | 0.02 | 0.02 | 94 | 1012.4 | |
| 20260904011744 | 79 | 0.0 | 0.0 | 0.00 | 0.02 | 0.02 | 95 | 1012.6 | |
| 20260904011242 | 79 | 0.0 | 0.0 | 0.00 | 0.02 | 0.02 | 95 | 1012.7 | |
| 20260904010719 | 79 | 0.0 | 0.0 | 0.00 | 0.02 | 0.02 | 94 | 1012.7 | |
| 20260904010237 | 79 | 0.0 | 0.0 | 0.00 | 0.02 | 0.02 | 93 | 1012.7 | |
| 20260904005725 | 79 | 0.0 | 0.0 | 0.00 | 0.02 | 0.02 | 92 | 1012.7 | |
| 20260904005223 | 79 | 0.0 | 0.0 | 0.00 | 0.02 | 0.02 | 92 | 1012.4 | |
| 20260904004720 | 79 | 0.0 | 0.0 | 0.00 | 0.02 | 0.02 | 92 | 1012.3 | |
| 20260904004218 | 79 | 0.0 | 0.0 | 0.00 | 0.02 | 0.02 | 92 | 1012.1 | |
| 20260904003715 | 79 | 0.0 | 0.0 | 0.00 | 0.02 | 0.02 | 92 | 1012.1 | |
| 20260904003223 | 79 | 0.0 | 0.0 | 0.00 | 0.02 | 0.02 | 92 | 1012.1 | |
| 20260904002721 | 79 | 0.0 | 0.0 | 0.00 | 0.02 | 0.02 | 91 | 1012.0 | |
| 20260904002218 | 79 | 0.0 | 0.0 | 0.00 | 0.02 | 0.02 | 90 | 1011.9 | |
| 20260904001716 | 79 | 0.0 | 0.0 | 0.00 | 0.02 | 0.02 | 90 | 1011.8 | |
| 20260904001244 | 79 | 0.0 | 0.0 | 0.00 | 0.02 | 0.02 | 90 | 1011.8 | |
| 20260904000721 | 79 | 0.0 | 0.0 | 0.00 | 0.02 | 0.02 | 90 | 1012.0 | |
| 20260904000219 | 80 | 0.0 | 0.0 | 0.00 | 0.02 | 0.02 | 90 | 1011.9 | |
| 20260903235719 | 80 | 0.0 | 0.0 | 0.00 | 0.02 | 0.02 | 90 | 1012.0 | |
| 20260903235224 | 80 | 0.0 | 0.0 | 0.00 | 0.02 | 0.02 | 90 | 1012.0 | |
| 20260903234722 | 80 | 0.0 | 0.0 | 0.00 | 0.02 | 0.02 | 90 | 1012.0 | |
| 20260903234220 | 80 | 0.0 | 0.0 | 0.00 | 0.02 | 0.02 | 90 | 1012.0 | |
| 20260903233717 | 80 | 0.0 | 0.0 | 0.00 | 0.02 | 0.02 | 90 | 1011.9 | |
| 20260903233225 | 80 | 0.0 | 0.0 | 0.02 | 0.02 | 0.02 | 90 | 1011.8 | |
| 20260903232723 | 80 | 0.0 | 0.0 | 0.02 | 0.02 | 0.02 | 90 | 1011.8 | |
| 20260903232220 | 80 | 0.0 | 0.0 | 0.02 | 0.02 | 0.02 | 89 | 1011.6 | |
| 20260903231718 | 80 | 0.0 | 0.0 | 0.02 | 0.02 | 0.02 | 88 | 1011.6 | |
| 20260903231215 | 80 | 0.0 | 0.0 | 0.02 | 0.02 | 0.02 | 88 | 1011.8 | |
| 20260903230723 | 80 | 0.0 | 0.0 | 0.02 | 0.02 | 0.02 | 87 | 1011.8 | |
| 20260903230221 | 81 | 0.0 | 0.0 | 0.02 | 0.02 | 0.02 | 87 | 1011.5 | |
| 20260903225718 | 81 | 0.0 | 0.0 | 0.02 | 0.02 | 0.02 | 86 | 1011.7 | |
| 20260903225215 | 82 | 0.0 | 0.0 | 0.02 | 0.02 | 0.02 | 86 | 1011.7 | |
| 20260903224743 | 82 | 0.0 | 0.0 | 0.02 | 0.02 | 0.02 | 86 | 1011.6 | |
| 20260903224241 | 82 | 0.0 | 0.0 | 0.02 | 0.02 | 0.02 | 85 | 1011.5 | |
| 20260903223719 | 84 | 0.0 | 0.0 | 0.02 | 0.02 | 0.02 | 84 | 1011.5 | |
| 20260903223216 | 85 | 0.0 | 0.0 | 0.00 | 0.01 | 0.00 | 83 | 1011.5 | |
| 20260903222724 | 85 | 0.0 | 0.0 | 0.00 | 0.01 | 0.00 | 82 | 1011.4 | |
| 20260903222222 | 85 | 0.0 | 0.0 | 0.00 | 0.01 | 0.00 | 82 | 1011.6 | |
| 20260903221719 | 86 | 168 | 1.0 | 3.0 | 0.00 | 0.01 | 0.00 | 82 | 1011.2 |
| 20260903221219 | 86 | 0.0 | 0.0 | 0.00 | 0.01 | 0.00 | 81 | 1011.1 | |
| 20260903220725 | 88 | 141 | 1.0 | 2.0 | 0.00 | 0.01 | 0.00 | 79 | 1011.0 |
| 20260903220223 | 89 | 159 | 2.0 | 7.0 | 0.00 | 0.01 | 0.00 | 77 | 1010.9 |
| 20260903215720 | 89 | 118 | 0.0 | 7.0 | 0.00 | 0.01 | 0.00 | 75 | 1011.0 |
| 20260903215238 | 89 | 0.0 | 0.0 | 0.00 | 0.01 | 0.00 | 74 | 1011.1 | |
| 20260903214715 | 88 | 0.0 | 0.0 | 0.00 | 0.01 | 0.00 | 75 | 1010.8 | |
| 20260903214223 | 88 | 0.0 | 0.0 | 0.00 | 0.01 | 0.00 | 76 | 1010.9 | |
| 20260903213721 | 88 | 0.0 | 0.0 | 0.00 | 0.01 | 0.00 | 75 | 1010.8 | |
| 20260903213218 | 88 | 0.0 | 0.0 | 0.00 | 0.01 | 0.00 | 75 | 1010.8 | |
| 20260903212716 | 88 | 0.0 | 0.0 | 0.00 | 0.01 | 0.00 | 74 | 1010.5 | |
| 20260903212223 | 88 | 0.0 | 0.0 | 0.00 | 0.01 | 0.00 | 73 | 1010.5 | |
| 20260903211721 | 88 | 0.0 | 0.0 | 0.00 | 0.01 | 0.00 | 72 | 1010.4 | |
| 20260903211219 | 88 | 0.0 | 0.0 | 0.00 | 0.01 | 0.00 | 73 | 1010.4 | |
| 20260903210716 | 88 | 0.0 | 0.0 | 0.00 | 0.01 | 0.00 | 73 | 1010.7 | |
| 20260903210224 | 89 | 0.0 | 0.0 | 0.00 | 0.01 | 0.00 | 72 | 1010.5 | |
| 20260903205721 | 89 | 0.0 | 0.0 | 0.00 | 0.01 | 0.00 | 73 | 1010.7 | |
| 20260903205239 | 89 | 0.0 | 0.0 | 0.00 | 0.01 | 0.00 | 73 | 1010.6 | |
| 20260903204717 | 89 | 0.0 | 0.0 | 0.00 | 0.01 | 0.00 | 73 | 1010.6 | |
| 20260903204224 | 89 | 0.0 | 0.0 | 0.00 | 0.01 | 0.00 | 73 | 1010.8 | |
| 20260903203722 | 90 | 0.0 | 0.0 | 0.00 | 0.01 | 0.00 | 73 | 1011.1 | |
| 20260903203219 | 90 | 0.0 | 0.0 | 0.00 | 0.01 | 0.00 | 72 | 1010.9 |